Lapse_Rate
6.0 6.0 6.0 6.0 6.0 6.0 6.0 6.0 6.0 5.8 5.4 5.5 5.6 5.6 5.7 5.8 5.9 5.9 6.0 6.0 6.1 6.0 5.9 6.0 6.2 6.2 6.8 7.2 7.3 7.2 6.7 6.6 6.6 6.6 7.0 6.9 6.9 7.0 7.2 7.2 6.8 6.7 6.5 6.3 6.0
6.2 6.2 6.2 6.1 6.0 6.0 6.0 6.0 6.1 6.1 5.7 5.6 5.7 5.7 5.8 5.9 6.1 6.1 6.0 6.2 6.5 6.5 6.3 6.5 6.6 6.4 6.6 6.7 6.6 6.8 6.7 6.7 6.6 6.7 6.9 7.1 6.8 6.9 6.9 6.9 6.9 6.8 6.4 6.0 6.1
6.0 6.1 6.3 6.3 6.2 6.0 6.0 6.1 6.1 6.1 6.0 5.8 5.9 5.8 5.9 6.0 6.2 6.3 6.4 6.6 6.7 6.8 6.7 6.6 6.7 6.7 6.8 6.7 6.5 6.6 6.8 6.7 6.8 7.1 6.9 6.8 6.8 6.6 6.8 6.8 6.9 7.3 7.0 5.8 6.0
5.9 6.0 6.1 6.3 6.3 6.3 6.1 6.1 6.2 6.2 6.2 6.0 6.1 5.9 6.0 6.1 6.4 6.4 6.6 6.7 6.7 7.0 6.9 7.0 6.8 6.8 6.7 6.7 6.8 6.7 6.7 6.8 7.1 7.1 7.1 6.5 6.6 6.8 6.8 6.6 6.7 7.2 7.5 6.7 6.5
5.8 5.9 6.0 6.1 6.3 6.3 6.3 6.3 6.3 6.3 6.3 6.2 6.0 6.2 6.1 6.3 6.5 6.6 6.7 6.9 6.7 6.7 7.0 7.0 6.9 7.1 7.5 7.3 7.1 6.9 7.0 6.8 7.1 7.1 7.0 6.9 6.5 7.0 6.9 6.8 6.8 7.0 7.3 6.9 6.5
5.7 5.8 5.9 6.0 6.1 6.2 6.3 6.3 6.4 6.4 6.4 6.4 6.2 6.3 6.2 6.5 6.8 6.8 6.9 6.8 6.6 6.7 7.2 7.2 7.2 7.6 7.9 7.5 7.0 7.3 7.2 7.3 7.0 6.8 7.0 6.9 6.6 6.8 6.5 6.7 7.0 6.9 7.0 7.1 6.7
5.7 5.8 5.8 5.9 6.0 6.1 6.2 6.3 6.3 6.4 6.5 6.5 6.5 6.2 6.4 6.6 6.7 6.9 6.8 6.6 6.6 6.8 7.0 7.4 7.5 7.8 8.1 7.8 7.2 7.1 7.0 7.2 7.2 6.9 6.9 6.9 6.9 6.5 6.6 6.6 6.8 6.9 7.1 7.0 6.9
5.7 5.8 5.8 5.8 6.0 6.1 6.2 6.3 6.3 6.5 6.6 6.6 6.6 6.4 6.3 6.6 6.7 7.0 6.9 6.8 7.2 7.0 7.3 7.7 7.7 7.7 7.9 7.7 7.6 7.5 7.3 7.5 7.2 7.0 7.2 7.0 6.8 6.8 6.6 6.7 6.7 6.5 6.8 7.3 7.1
6.1 6.0 5.9 5.9 5.9 6.0 6.2 6.3 6.4 6.5 6.6 6.7 6.6 6.7 6.5 6.5 6.7 6.9 7.0 6.8 6.8 7.2 7.6 7.8 7.7 7.5 7.6 7.7 7.9 8.1 8.2 8.3 7.8 7.4 7.2 6.9 6.8 6.6 6.7 6.3 6.5 6.6 6.5 6.8 6.7
6.7 6.6 6.3 6.2 6.1 6.1 6.1 6.3 6.4 6.6 6.7 6.7 6.7 6.6 6.8 6.6 6.6 6.9 7.1 6.9 7.1 7.2 7.9 7.9 7.6 7.3 7.6 7.6 7.7 7.8 8.2 8.2 7.7 7.6 7.3 7.1 6.8 6.6 6.6 6.5 6.2 6.2 6.1 6.1 6.2
6.9 7.0 7.0 6.9 6.7 6.5 6.5 6.6 6.6 6.7 6.8 6.8 6.9 6.9 7.1 7.0 6.8 6.9 7.0 7.0 7.2 7.5 7.9 7.8 7.7 7.5 7.4 7.7 7.8 7.7 7.8 7.8 7.8 7.7 7.2 7.2 6.9 6.6 6.6 6.4 6.0 5.8 5.9 6.1 6.1
6.8 7.0 7.0 7.0 7.0 7.0 6.8 6.8 6.7 6.7 6.9 7.0 7.2 7.2 7.5 7.4 7.2 7.2 7.2 7.2 7.3 8.0 8.0 8.0 8.1 7.8 7.8 7.9 8.0 7.9 7.9 8.0 7.7 7.6 7.5 7.5 7.4 7.0 6.5 6.7 6.6 6.0 5.9 5.8 5.9
6.8 7.0 7.1 7.1 7.1 7.0 6.9 6.8 6.9 7.0 7.0 7.1 7.3 7.4 7.5 7.5 7.4 7.5 7.5 7.4 7.5 8.0 8.1 8.0 8.2 8.1 8.2 8.1 8.1 8.3 8.1 8.0 7.4 7.3 7.5 7.5 7.2 7.4 7.1 6.7 6.5 6.5 6.3 6.1 6.0
6.9 7.0 7.0 7.1 7.0 6.8 6.9 6.9 7.0 7.1 7.1 7.4 7.4 7.5 7.7 7.6 7.5 7.5 7.4 7.3 7.5 7.9 8.1 8.1 8.5 8.4 8.4 8.4 8.4 8.4 8.7 8.1 7.5 7.1 7.0 7.0 7.7 7.7 7.6 7.2 7.0 6.8 6.5 6.5 6.4
6.9 7.0 7.1 7.1 7.1 7.1 7.0 7.1 7.2 7.3 7.9 7.7 7.7 7.9 7.8 7.7 7.7 7.6 7.6 7.3 7.3 7.6 7.9 8.2 8.6 8.6 8.6 8.8 8.6 8.3 8.6 8.2 7.4 6.9 6.8 6.8 6.8 7.8 8.0 7.8 7.7 7.3 7.1 6.5 6.6
7.2 7.3 7.5 7.6 7.7 7.7 7.7 7.6 7.6 7.8 8.0 8.0 8.1 8.1 8.0 7.8 7.8 7.5 7.4 7.2 7.3 7.4 7.7 8.4 8.7 8.6 8.8 9.0 8.9 8.3 8.2 7.8 7.2 6.9 7.5 6.6 6.8 7.3 7.7 7.7 7.8 7.6 7.3 6.9 6.4
7.2 7.4 7.6 7.8 7.7 7.8 7.9 7.8 7.9 8.3 8.3 8.2 8.2 8.2 8.2 8.0 7.9 7.7 7.3 7.1 7.1 7.3 7.9 8.5 8.6 8.9 8.9 9.0 9.0 8.6 8.4 7.8 8.0 8.0 8.0 6.9 6.5 7.6 7.6 7.5 7.4 7.4 7.4 7.3 7.1
7.3 7.6 7.9 8.0 8.1 8.2 8.1 8.0 8.1 8.2 8.3 8.4 8.2 8.3 8.2 8.2 8.1 8.1 7.9 7.7 7.5 7.6 8.0 8.7 8.8 9.2 9.3 9.3 9.3 9.1 8.3 9.0 8.7 8.6 8.2 7.3 7.3 7.7 7.9 7.5 7.2 7.1 7.5 7.8 8.0
7.5 8.1 8.3 8.6 8.7 8.6 8.6 8.2 7.8 8.5 8.6 8.5 8.4 8.5 8.6 8.6 8.5 8.4 8.1 8.2 8.1 7.8 8.1 8.9 9.4 9.4 9.0 8.8 9.0 8.8 8.5 8.5 8.5 7.6 7.6 7.5 7.7 7.8 7.9 7.3 7.2 6.9 7.3 7.6 7.7
7.7 8.1 8.6 8.9 9.0 8.9 8.7 8.6 8.7 8.7 8.8 9.0 9.1 9.2 9.0 8.8 8.6 8.6 8.6 8.5 8.5 8.6 8.5 8.8 9.0 9.1 8.8 8.9 8.8 9.0 8.8 8.6 8.7 8.5 8.5 7.9 7.2 7.9 8.0 7.9 8.1 7.2 7.6 7.9 7.8
7.9 8.2 8.6 8.9 9.1 9.1 8.9 8.9 8.9 8.8 8.9 9.0 9.2 9.3 9.3 9.2 9.1 9.1 8.9 8.7 8.9 9.0 8.8 8.9 8.8 9.0 8.9 9.0 9.2 9.0 8.7 8.9 8.8 8.5 9.0 9.0 8.3 7.9 7.8 7.9 8.0 8.0 7.6 8.1 7.8
8.0 8.2 8.6 8.9 8.9 9.0 8.9 8.9 8.9 8.9 9.0 8.9 9.0 8.9 9.0 9.0 9.1 9.0 9.0 9.0 9.0 9.1 9.1 8.9 8.7 8.8 8.9 9.1 9.3 9.2 9.0 9.0 9.0 8.2 8.3 8.1 8.3 7.8 7.8 7.9 7.9 8.0 7.8 7.6 7.7
7.9 8.2 8.4 8.9 9.0 9.0 8.8 8.8 8.7 8.7 8.8 8.9 8.6 8.7 8.7 8.8 9.0 9.0 9.0 9.1 9.1 9.1 9.0 8.9 8.9 8.9 9.1 9.1 9.1 9.0 9.3 9.2 9.0 9.1 8.6 9.1 8.3 8.4 7.8 8.0 8.0 7.7 7.7 7.9 8.1
7.8 8.2 8.2 8.5 8.7 8.8 8.9 8.8 8.7 8.6 8.5 8.5 8.5 8.5 8.6 8.7 8.8 8.8 9.0 8.9 9.0 9.0 8.9 8.8 8.7 9.0 9.2 9.0 8.9 8.9 9.1 9.2 9.0 9.0 9.2 8.7 8.8 8.2 8.1 8.3 8.3 8.2 8.1 8.0 8.0
7.7 7.9 8.2 8.1 8.3 8.5 8.5 8.4 8.6 8.4 8.5 8.4 8.5 8.6 8.5 8.5 8.8 8.8 8.9 8.8 8.7 8.8 8.9 8.8 8.7 8.7 8.8 8.8 9.0 8.9 8.9 9.0 9.1 9.1 9.3 8.9 8.7 8.5 8.3 8.3 8.4 8.3 8.3 8.2 8.2
7.5 7.5 7.7 7.9 7.9 8.1 8.3 8.2 8.1 7.9 7.9 7.9 7.9 8.0 8.2 8.4 8.3 8.4 8.6 8.7 8.7 8.8 9.0 9.0 8.8 8.5 8.4 8.4 8.7 8.9 9.1 9.0 9.0 9.1 9.2 9.2 8.8 8.6 8.4 8.2 8.2 8.2 8.3 8.1 7.6
7.1 7.2 7.3 7.5 7.6 7.7 7.8 8.0 7.8 7.5 7.5 7.4 7.5 7.4 7.5 7.9 8.1 8.3 8.5 8.5 8.6 8.6 8.8 8.9 8.7 8.6 8.5 8.5 8.7 8.6 8.8 8.9 8.9 9.2 9.3 9.0 9.0 8.6 8.4 8.5 8.4 8.1 8.0 7.6 7.3
Wind_Speed
13 13 13 13 12 12 14 14 13 13 12 11 12 12 13 14 7 3 6 5 8 21 18 14 8 6 3 1 1 0 1 5 4 1 5 7 6 4 5 11 3 3 16 19 20
13 13 13 14 13 12 12 14 13 13 13 11 11 12 12 12 2 7 3 15 28 25 16 13 9 9 3 2 2 0 4 4 5 4 5 8 7 7 7 6 9 16 17 20 18
14 13 13 14 14 13 12 13 13 13 13 12 11 12 12 8 2 2 14 23 26 20 12 8 10 5 3 1 2 3 3 1 9 5 12 12 6 5 14 4 10 24 26 24 17
14 13 13 13 14 14 12 12 12 11 12 13 11 13 13 3 3 3 19 29 26 17 13 8 3 1 4 5 1 5 7 5 6 7 8 9 8 7 9 0 14 19 24 22 20
14 12 12 12 13 14 13 11 11 11 11 12 11 11 3 2 1 4 18 23 18 15 10 6 1 1 5 4 4 6 6 5 8 10 9 9 6 6 6 4 19 20 22 21 18
14 12 11 12 13 13 12 11 10 10 9 10 10 8 3 4 3 12 19 18 12 9 7 4 4 0 5 2 2 3 6 8 11 10 8 9 8 10 6 13 20 21 20 19 18
14 13 11 10 12 12 12 11 9 8 8 8 6 2 2 1 2 13 15 12 12 5 6 4 2 5 2 1 3 5 3 8 8 3 5 7 6 1 15 15 17 18 17 16 16
14 13 10 10 10 11 11 10 8 7 6 5 4 2 3 3 7 12 10 10 11 3 4 4 2 1 4 4 3 6 4 2 2 4 3 2 3 7 14 16 17 14 13 14 16
14 12 10 9 8 8 9 10 11 8 3 5 2 2 1 4 4 9 6 10 9 2 3 3 2 3 1 1 1 5 2 4 4 3 5 1 3 9 14 13 15 14 13 12 12
15 12 10 7 6 6 10 5 5 7 4 3 2 1 1 2 5 11 2 14 4 7 3 2 2 2 1 3 5 4 2 4 3 2 3 7 4 11 13 15 15 14 13 13 15
17 12 8 5 3 4 0 4 2 3 2 3 1 0 1 3 7 5 5 7 6 3 4 2 3 5 6 11 7 6 9 5 2 4 3 5 7 13 14 13 13 14 15 14 15
17 12 7 2 0 1 1 2 1 2 2 4 2 5 4 2 4 7 11 5 4 5 5 3 8 10 7 6 7 9 9 9 3 4 2 4 4 11 16 16 16 14 14 15 16
19 12 5 0 2 1 3 4 3 1 1 1 3 3 2 7 4 11 13 5 3 6 5 7 5 1 7 10 7 6 11 8 4 5 3 3 4 11 12 12 12 13 14 15 16
19 11 3 3 2 3 3 1 1 2 1 1 1 2 5 5 4 4 11 5 2 6 5 8 6 6 9 11 7 3 5 8 10 9 3 1 1 6 13 15 15 17 17 16 17
18 10 1 7 1 3 2 6 5 3 2 2 3 2 2 3 8 4 3 3 8 4 5 5 3 3 5 8 6 4 9 12 9 4 2 3 3 2 8 15 19 18 17 16 14
19 10 4 4 2 4 5 1 2 2 4 3 4 6 5 2 2 5 5 3 2 5 3 13 0 3 3 5 4 14 15 11 4 1 3 2 3 2 6 10 13 15 16 16 14
22 5 9 2 2 6 2 2 2 1 2 4 3 6 5 3 3 5 10 9 6 5 7 4 9 3 5 8 7 2 5 3 1 2 1 1 3 5 5 4 3 7 10 14 12
13 12 6 3 5 8 2 1 2 2 1 3 3 6 5 5 2 3 8 10 4 5 1 3 8 9 9 6 6 13 4 2 2 2 3 3 3 2 3 6 5 4 5 6 10
2 1 1 2 3 3 0 3 1 0 1 5 5 5 3 3 2 3 6 9 9 12 7 5 4 1 1 3 3 7 4 2 6 1 3 1 2 6 7 10 7 7 7 4 6
1 1 3 3 4 1 1 1 1 2 2 1 3 3 6 6 6 6 7 4 5 12 11 1 4 2 4 2 9 3 9 4 2 2 3 2 3 0 5 11 10 8 7 7 4
1 2 3 1 2 2 3 2 3 1 1 1 2 3 2 3 1 1 2 2 1 5 7 5 3 2 3 0 3 5 4 6 4 2 2 1 2 2 2 10 9 10 7 5 3
2 2 3 3 1 1 2 3 5 6 4 5 4 4 3 1 2 2 2 1 4 9 8 4 1 3 2 1 1 1 2 4 4 5 0 2 3 2 3 4 5 6 4 4 4
2 2 2 2 3 3 2 2 5 8 7 6 5 6 4 1 2 0 2 3 5 3 4 7 1 2 3 4 3 1 2 2 4 3 5 2 4 2 4 3 3 6 6 4 5
2 0 3 4 2 2 3 5 3 4 4 4 3 3 2 4 5 3 2 4 4 3 6 3 3 2 3 2 3 1 1 7 2 3 7 2 6 7 10 7 6 6 6 8 9
4 3 2 3 4 4 1 3 5 6 6 8 4 9 3 6 3 5 6 4 4 4 2 1 3 1 4 3 1 4 3 7 4 3 3 6 11 10 8 8 8 7 6 6 8
3 3 2 1 2 2 4 3 3 3 4 4 4 5 8 4 2 3 5 4 4 6 4 2 2 1 1 7 1 2 4 2 2 3 2 11 10 6 7 8 8 7 7 6 7
2 0 2 2 1 1 2 2 4 2 2 3 2 1 4 3 4 6 4 4 2 4 5 2 3 1 1 8 3 4 5 4 1 2 1 4 7 13 11 10 6 6 8 9 7
Wind_Direction
326 322 319 318 318 319 319 321 326 329 333 338 337 335 333 330 328 169 214 193 169 160 148 135 140 142 157 115 205 124 83 63 39 322 123 152 126 59 97 129 93 94 142 146 153
325 321 316 313 312 312 313 315 321 325 328 333 334 330 329 330 273 222 238 154 147 154 147 156 159 153 161 158 187 142 71 54 6 290 158 141 133 117 140 126 95 109 123 142 152
322 318 314 310 308 307 308 310 315 321 324 329 334 326 320 318 243 222 159 150 155 162 150 155 144 169 134 172 1 59 94 234 10 56 143 145 122 110 150 148 164 151 150 155 159
322 317 312 308 305 303 305 307 311 319 323 324 333 322 317 218 131 41 151 151 154 153 142 151 159 130 58 78 101 125 62 68 27 89 127 151 132 102 161 241 165 153 154 155 166
324 318 314 306 301 301 301 303 308 316 320 319 329 323 296 209 263 109 148 153 152 152 158 160 117 136 104 151 104 134 157 125 80 91 160 147 137 134 206 161 153 146 153 161 170
326 319 313 306 300 296 299 302 305 311 316 315 323 319 256 211 345 153 150 156 157 150 161 146 49 203 81 177 229 189 133 159 76 78 120 154 140 130 148 146 156 157 164 171 171
331 323 316 307 301 299 296 298 301 305 309 307 309 298 206 88 349 152 153 149 155 152 167 191 11 2 285 185 81 299 107 150 72 43 87 130 138 120 147 151 160 167 170 173 179
337 328 319 306 299 295 293 295 296 294 298 285 260 265 249 353 145 144 149 118 159 77 86 52 258 312 314 81 347 338 84 87 53 86 66 119 83 116 153 148 163 180 186 184 179
342 337 330 316 301 294 294 296 288 273 207 165 213 293 217 124 159 162 168 150 142 217 310 334 23 29 276 290 228 36 26 335 354 77 128 101 99 154 164 165 166 183 195 200 203
346 341 335 326 311 306 300 261 81 146 161 193 254 249 189 188 138 152 86 143 146 152 181 166 110 168 269 224 334 330 207 251 265 80 157 139 128 163 178 171 176 187 196 208 206
348 347 344 332 317 320 80 135 176 152 177 214 99 334 82 76 140 148 153 134 122 147 195 101 228 254 251 230 275 271 265 243 166 176 197 199 164 173 186 186 186 201 198 207 223
351 350 346 339 240 311 277 220 238 31 299 220 243 278 239 239 117 130 164 157 165 148 139 186 266 269 254 269 245 245 249 257 98 155 264 153 166 183 186 200 192 208 217 220 221
349 349 348 56 162 192 238 234 103 345 268 345 178 203 200 182 156 167 174 153 158 164 189 248 260 73 291 301 256 220 212 215 196 152 65 149 176 178 203 211 210 215 227 229 236
347 347 353 156 216 153 230 226 207 216 47 70 208 186 141 184 129 128 182 151 129 205 187 263 283 275 276 277 236 236 231 205 157 174 229 284 344 201 191 206 216 217 219 230 232
344 344 320 211 67 200 77 331 137 207 106 129 130 127 147 170 130 135 199 121 170 164 207 223 271 230 275 284 182 31 131 158 148 151 203 133 252 136 189 214 216 217 220 226 231
334 312 181 171 228 264 331 97 234 246 100 136 123 154 140 58 105 122 155 95 98 189 245 261 285 259 259 31 155 128 110 104 94 194 257 68 282 176 190 227 230 217 219 221 221
329 263 180 180 105 327 281 165 278 19 331 138 137 157 133 133 109 151 165 186 198 186 224 248 247 227 189 101 147 177 195 104 123 227 306 129 234 287 263 174 141 183 206 217 223
354 135 217 241 294 342 207 193 52 44 36 82 116 113 169 164 144 138 153 188 205 200 291 192 233 187 181 213 194 200 252 263 331 303 354 186 240 95 345 116 135 174 169 188 209
149 193 188 312 229 184 79 67 4 270 255 135 115 133 165 188 206 177 192 204 203 196 217 187 252 74 203 168 207 167 195 73 109 140 271 334 274 271 48 115 176 184 176 173 201
256 163 37 36 152 155 100 109 295 224 309 146 153 201 168 177 185 199 183 167 201 200 218 171 279 176 103 102 59 245 132 169 93 171 257 252 279 7 30 73 107 123 112 97 109
247 87 26 205 254 51 45 6 301 314 254 281 115 123 111 163 215 151 127 92 228 161 188 179 251 133 183 309 164 147 169 69 103 308 274 282 77 205 120 91 88 93 66 65 77
344 54 32 277 83 16 48 326 336 359 21 52 85 68 64 119 123 177 125 259 343 162 169 180 232 316 10 50 351 23 119 190 228 189 233 311 99 34 191 79 55 56 58 2 350
35 325 69 286 79 39 334 63 37 27 29 25 43 37 54 42 113 287 355 38 32 140 150 171 183 143 138 153 153 64 80 107 116 137 184 205 122 120 132 69 45 37 43 51 11
336 48 7 57 29 27 16 19 28 33 63 38 56 97 96 48 37 96 39 37 19 88 59 125 90 330 229 26 349 31 110 155 268 190 158 188 138 166 159 125 92 79 57 29 12
13 62 0 7 24 41 44 10 19 14 17 26 57 48 81 24 35 39 20 4 85 14 86 357 91 50 75 355 229 296 289 220 247 295 244 125 145 153 119 110 90 79 71 51 34
23 359 13 43 292 308 8 61 39 19 359 23 55 32 40 72 27 347 351 25 29 356 39 358 97 316 83 8 49 128 30 104 209 202 108 138 102 118 114 109 107 104 105 89 74
20 136 280 16 10 145 30 354 31 298 42 38 32 73 16 37 300 304 289 307 320 340 1 26 120 11 235 343 317 198 352 323 149 187 355 148 128 156 140 127 121 121 110 107 92